Time,TemperatureF,DewpointF,PressureIn,WindDirection,WindDirectionDegrees,WindSpeedMPH,WindSpeedGustMPH,Humidity,HourlyPrecipIn,Conditions,Clouds,dailyrainin,SoftwareType,DateUTC
2013-02-07 00:01:00,18.0,16.0,30.16,North,0,0.0,0.0,90,0.00,,,0.00,,2013-02-07 07:01:00,
2013-02-07 00:11:00,18.0,16.0,30.16,North,0,0.0,0.0,90,0.00,,,0.00,,2013-02-07 07:11:00,
2013-02-07 00:21:00,18.0,16.0,30.16,North,0,0.0,0.0,90,0.00,,,0.00,,2013-02-07 07:21:00,
2013-02-07 00:31:00,18.0,16.0,30.17,North,0,0.0,0.0,91,0.00,,,0.00,,2013-02-07 07:31:00,
2013-02-07 00:41:00,18.0,16.0,30.17,North,0,0.0,0.0,91,0.00,,,0.00,,2013-02-07 07:41:00,
2013-02-07 00:52:00,17.0,15.0,30.16,North,0,0.0,0.0,90,0.00,,,0.00,,2013-02-07 07:52:00,
2013-02-07 01:01:00,17.0,14.0,30.16,North,0,0.0,0.0,89,0.00,,,0.00,,2013-02-07 08:01:00,
2013-02-07 01:11:00,17.0,14.0,30.16,North,0,0.0,0.0,89,0.00,,,0.00,,2013-02-07 08:11:00,
2013-02-07 01:21:00,17.0,14.0,30.16,North,0,0.0,0.0,87,0.00,,,0.00,,2013-02-07 08:21:00,
2013-02-07 01:31:00,17.0,13.0,30.16,North,0,0.0,0.0,84,0.00,,,0.00,,2013-02-07 08:31:00,
2013-02-07 01:41:00,17.0,13.0,30.16,North,0,0.0,0.0,84,0.00,,,0.00,,2013-02-07 08:41:00,
2013-02-07 01:52:00,18.0,14.0,30.17,North,0,0.0,0.0,83,0.00,,,0.00,,2013-02-07 08:52:00,
2013-02-07 02:01:00,18.0,12.0,30.17,North,0,0.0,0.0,77,0.00,,,0.00,,2013-02-07 09:01:00,
2013-02-07 02:11:00,18.0,12.0,30.18,North,0,0.0,0.0,77,0.00,,,0.00,,2013-02-07 09:11:00,
2013-02-07 02:21:00,18.0,12.0,30.18,North,0,0.0,0.0,77,0.00,,,0.00,,2013-02-07 09:21:00,
2013-02-07 02:31:00,18.0,10.0,30.17,North,0,0.0,0.0,71,0.00,,,0.00,,2013-02-07 09:31:00,
2013-02-07 02:41:00,18.0,10.0,30.17,North,0,0.0,0.0,71,0.00,,,0.00,,2013-02-07 09:41:00,
2013-02-07 02:52:00,18.0,12.0,30.16,North,0,0.0,0.0,77,0.00,,,0.00,,2013-02-07 09:52:00,
2013-02-07 03:01:00,18.0,12.0,30.16,North,0,0.0,0.0,78,0.00,,,0.00,,2013-02-07 10:01:00,
2013-02-07 03:11:00,18.0,12.0,30.16,North,0,0.0,0.0,78,0.00,,,0.00,,2013-02-07 10:11:00,
2013-02-07 03:21:00,18.0,11.0,30.16,North,0,0.0,0.0,75,0.00,,,0.00,,2013-02-07 10:21:00,
2013-02-07 03:31:00,18.0,11.0,30.16,North,0,0.0,0.0,74,0.00,,,0.00,,2013-02-07 10:31:00,
2013-02-07 03:41:00,18.0,11.0,30.16,North,0,0.0,0.0,74,0.00,,,0.00,,2013-02-07 10:41:00,
2013-02-07 03:52:00,18.0,11.0,30.16,North,0,0.0,0.0,72,0.00,,,0.00,,2013-02-07 10:52:00,
2013-02-07 04:01:00,18.0,10.0,30.16,North,0,0.0,0.0,71,0.00,,,0.00,,2013-02-07 11:01:00,
2013-02-07 04:11:00,18.0,10.0,30.16,North,0,0.0,0.0,71,0.00,,,0.00,,2013-02-07 11:11:00,
2013-02-07 04:22:00,17.0,9.0,30.16,North,0,0.0,0.0,70,0.00,,,0.00,,2013-02-07 11:22:00,
2013-02-07 04:32:00,17.0,9.0,30.16,North,0,0.0,0.0,71,0.00,,,0.00,,2013-02-07 11:32:00,
2013-02-07 04:43:00,17.0,9.0,30.16,North,0,0.0,0.0,71,0.00,,,0.00,,2013-02-07 11:43:00,
2013-02-07 04:52:00,17.0,9.0,30.16,North,0,0.0,0.0,71,0.00,,,0.00,,2013-02-07 11:52:00,
2013-02-07 05:01:00,18.0,10.0,30.17,North,0,0.0,0.0,69,0.00,,,0.00,,2013-02-07 12:01:00,
2013-02-07 05:11:00,18.0,10.0,30.17,North,0,0.0,0.0,69,0.00,,,0.00,,2013-02-07 12:11:00,
2013-02-07 05:21:00,17.0,8.0,30.15,North,0,0.0,0.0,66,0.00,,,0.00,,2013-02-07 12:21:00,
2013-02-07 05:32:00,17.0,9.0,30.16,North,0,0.0,0.0,69,0.00,,,0.00,,2013-02-07 12:32:00,
2013-02-07 05:41:00,17.0,9.0,30.16,North,0,0.0,0.0,69,0.00,,,0.00,,2013-02-07 12:41:00,
2013-02-07 05:53:00,17.0,8.0,30.16,North,0,0.0,0.0,68,0.00,,,0.00,,2013-02-07 12:53:00,
2013-02-07 06:02:00,17.0,9.0,30.16,North,0,0.0,0.0,69,0.00,,,0.00,,2013-02-07 13:02:00,
2013-02-07 06:11:00,17.0,9.0,30.16,North,0,0.0,0.0,69,0.00,,,0.00,,2013-02-07 13:11:00,
2013-02-07 06:21:00,17.0,9.0,30.16,North,0,0.0,0.0,70,0.00,,,0.00,,2013-02-07 13:21:00,
2013-02-07 06:31:00,18.0,6.0,30.16,North,0,0.0,0.0,60,0.00,,,0.00,,2013-02-07 13:31:00,
2013-02-07 06:41:00,18.0,6.0,30.16,North,0,0.0,0.0,60,0.00,,,0.00,,2013-02-07 13:41:00,
2013-02-07 06:52:00,17.0,8.0,30.17,North,0,0.0,0.0,66,0.00,,,0.00,,2013-02-07 13:52:00,
2013-02-07 07:01:00,17.0,7.0,30.17,North,0,0.0,0.0,64,0.00,,,0.00,,2013-02-07 14:01:00,
2013-02-07 07:11:00,17.0,7.0,30.17,North,0,0.0,0.0,64,0.00,,,0.00,,2013-02-07 14:11:00,
2013-02-07 07:21:00,17.0,2.0,30.17,North,0,0.0,0.0,50,0.00,,,0.00,,2013-02-07 14:21:00,
2013-02-07 07:31:00,17.0,4.0,30.17,North,0,0.0,0.0,57,0.00,,,0.00,,2013-02-07 14:31:00,
2013-02-07 07:41:00,17.0,4.0,30.17,North,0,0.0,0.0,57,0.00,,,0.00,,2013-02-07 14:41:00,
2013-02-07 07:52:00,18.0,-2.0,30.17,North,0,0.0,0.0,41,0.00,,,0.00,,2013-02-07 14:52:00,
2013-02-07 08:01:00,17.0,1.0,30.18,North,0,0.0,0.0,48,0.00,,,0.00,,2013-02-07 15:01:00,
2013-02-07 08:21:00,21.0,-15.0,30.19,North,0,0.0,0.0,19,0.00,,,0.00,,2013-02-07 15:21:00,
2013-02-07 08:31:00,23.0,-19.0,30.18,North,0,0.0,0.0,14,0.00,,,0.00,,2013-02-07 15:31:00,
2013-02-07 08:41:00,23.0,-19.0,30.18,North,0,0.0,0.0,14,0.00,,,0.00,,2013-02-07 15:41:00,
2013-02-07 08:52:00,23.0,-22.0,30.19,North,0,0.0,0.0,12,0.00,,,0.00,,2013-02-07 15:52:00,
2013-02-07 09:01:00,24.0,5.0,30.19,North,0,0.0,0.0,43,0.00,,,0.00,,2013-02-07 16:01:00,
2013-02-07 09:21:00,22.0,10.0,30.19,North,0,0.0,0.0,60,0.00,,,0.00,,2013-02-07 16:21:00,
2013-02-07 09:31:00,22.0,11.0,30.20,North,0,0.0,0.0,62,0.00,,,0.00,,2013-02-07 16:31:00,
2013-02-07 09:41:00,22.0,11.0,30.20,North,0,0.0,0.0,62,0.00,,,0.00,,2013-02-07 16:41:00,
2013-02-07 09:52:00,23.0,12.0,30.24,North,0,0.0,0.0,63,0.00,,,0.00,,2013-02-07 16:52:00,
2013-02-07 10:01:00,22.0,11.0,30.25,North,0,0.0,0.0,61,0.00,,,0.00,,2013-02-07 17:01:00,
2013-02-07 10:11:00,23.0,13.0,30.25,North,0,0.0,0.0,64,0.00,,,0.00,,2013-02-07 17:11:00,
2013-02-07 10:21:00,23.0,13.0,30.25,North,0,0.0,0.0,64,0.00,,,0.00,,2013-02-07 17:21:00,
2013-02-07 10:31:00,23.0,14.0,30.25,North,0,0.0,0.0,69,0.00,,,0.00,,2013-02-07 17:31:00,
2013-02-07 10:41:00,23.0,14.0,30.25,North,0,0.0,0.0,69,0.00,,,0.00,,2013-02-07 17:41:00,
2013-02-07 10:52:00,23.0,14.0,30.25,North,0,0.0,0.0,69,0.00,,,0.00,,2013-02-07 17:52:00,
2013-02-07 11:01:00,24.0,15.0,30.25,North,0,0.0,0.0,68,0.00,,,0.00,,2013-02-07 18:01:00,
2013-02-07 11:11:00,24.0,15.0,30.25,North,0,0.0,0.0,68,0.00,,,0.00,,2013-02-07 18:11:00,
2013-02-07 11:22:00,24.0,15.0,30.25,North,0,0.0,0.0,67,0.00,,,0.00,,2013-02-07 18:22:00,
2013-02-07 11:31:00,25.0,13.0,30.25,North,0,0.0,0.0,60,0.00,,,0.00,,2013-02-07 18:31:00,
2013-02-07 11:41:00,25.0,13.0,30.25,North,0,0.0,0.0,60,0.00,,,0.00,,2013-02-07 18:41:00,
2013-02-07 11:52:00,25.0,15.0,30.25,North,0,0.0,0.0,64,0.00,,,0.00,,2013-02-07 18:52:00,
2013-02-07 12:01:00,26.0,16.0,30.25,North,0,0.0,0.0,64,0.00,,,0.00,,2013-02-07 19:01:00,
2013-02-07 12:11:00,26.0,16.0,30.25,North,0,0.0,0.0,64,0.00,,,0.00,,2013-02-07 19:11:00,
2013-02-07 12:21:00,26.0,16.0,30.24,North,0,0.0,0.0,65,0.00,,,0.00,,2013-02-07 19:21:00,
2013-02-07 12:31:00,26.0,15.0,30.24,North,0,0.0,0.0,62,0.00,,,0.00,,2013-02-07 19:31:00,
2013-02-07 12:41:00,26.0,15.0,30.24,North,0,0.0,0.0,62,0.00,,,0.00,,2013-02-07 19:41:00,
2013-02-07 12:52:00,26.0,15.0,30.24,North,0,0.0,0.0,63,0.00,,,0.00,,2013-02-07 19:52:00,
2013-02-07 13:01:00,27.0,16.0,30.23,North,0,0.0,0.0,62,0.00,,,0.00,,2013-02-07 20:01:00,
2013-02-07 13:11:00,27.0,16.0,30.23,North,0,0.0,0.0,62,0.00,,,0.00,,2013-02-07 20:11:00,
2013-02-07 13:21:00,27.0,13.0,30.22,North,0,0.0,0.0,55,0.00,,,0.00,,2013-02-07 20:21:00,
2013-02-07 13:31:00,28.0,17.0,30.21,North,0,0.0,0.0,62,0.00,,,0.00,,2013-02-07 20:31:00,
2013-02-07 13:41:00,28.0,17.0,30.21,North,0,0.0,0.0,62,0.00,,,0.00,,2013-02-07 20:41:00,
2013-02-07 13:52:00,28.0,16.0,30.20,North,0,0.0,0.0,59,0.00,,,0.00,,2013-02-07 20:52:00,
2013-02-07 14:01:00,28.0,16.0,30.20,North,0,0.0,0.0,61,0.00,,,0.00,,2013-02-07 21:01:00,
2013-02-07 14:11:00,28.0,16.0,30.20,North,0,0.0,0.0,61,0.00,,,0.00,,2013-02-07 21:11:00,
2013-02-07 14:21:00,27.0,16.0,30.20,North,0,0.0,0.0,62,0.00,,,0.00,,2013-02-07 21:21:00,
2013-02-07 14:31:00,29.0,17.0,30.19,North,0,0.0,0.0,61,0.00,,,0.00,,2013-02-07 21:31:00,
2013-02-07 14:41:00,29.0,17.0,30.19,North,0,0.0,0.0,61,0.00,,,0.00,,2013-02-07 21:41:00,
2013-02-07 14:52:00,27.0,16.0,30.19,North,0,0.0,0.0,63,0.00,,,0.00,,2013-02-07 21:52:00,
2013-02-07 15:01:00,27.0,16.0,30.19,North,0,0.0,0.0,63,0.00,,,0.00,,2013-02-07 22:01:00,
2013-02-07 15:11:00,27.0,16.0,30.19,North,0,0.0,0.0,63,0.00,,,0.00,,2013-02-07 22:11:00,
2013-02-07 15:21:00,29.0,17.0,30.19,North,0,0.0,0.0,61,0.00,,,0.00,,2013-02-07 22:21:00,
2013-02-07 15:31:00,27.0,17.0,30.18,North,0,0.0,0.0,65,0.00,,,0.00,,2013-02-07 22:31:00,
2013-02-07 15:42:00,27.0,17.0,30.18,North,0,0.0,0.0,65,0.00,,,0.00,,2013-02-07 22:42:00,
2013-02-07 15:52:00,28.0,17.0,30.18,North,0,0.0,0.0,64,0.00,,,0.00,,2013-02-07 22:52:00,
2013-02-07 16:01:00,27.0,17.0,30.18,North,0,0.0,0.0,66,0.00,,,0.00,,2013-02-07 23:01:00,
2013-02-07 16:11:00,27.0,17.0,30.18,North,0,0.0,0.0,66,0.00,,,0.00,,2013-02-07 23:11:00,
2013-02-07 16:21:00,28.0,18.0,30.17,North,0,0.0,0.0,65,0.00,,,0.00,,2013-02-07 23:21:00,
2013-02-07 16:31:00,28.0,18.0,30.17,North,0,0.0,0.0,65,0.00,,,0.00,,2013-02-07 23:31:00,
2013-02-07 16:41:00,28.0,18.0,30.17,North,0,0.0,0.0,65,0.00,,,0.00,,2013-02-07 23:41:00,
2013-02-07 16:52:00,28.0,19.0,30.16,North,0,0.0,0.0,68,0.00,,,0.00,,2013-02-07 23:52:00,
2013-02-07 17:01:00,27.0,18.0,30.16,North,0,0.0,0.0,69,0.00,,,0.00,,2013-02-08 00:01:00,
2013-02-07 17:11:00,27.0,18.0,30.16,North,0,0.0,0.0,69,0.00,,,0.00,,2013-02-08 00:11:00,
2013-02-07 17:21:00,26.0,17.0,30.16,North,0,0.0,0.0,69,0.00,,,0.00,,2013-02-08 00:21:00,
2013-02-07 17:31:00,26.0,17.0,30.16,North,0,0.0,0.0,68,0.00,,,0.00,,2013-02-08 00:31:00,
2013-02-07 17:41:00,26.0,17.0,30.16,North,0,0.0,0.0,68,0.00,,,0.00,,2013-02-08 00:41:00,
2013-02-07 17:52:00,25.0,18.0,30.17,North,0,0.0,0.0,74,0.00,,,0.00,,2013-02-08 00:52:00,
2013-02-07 18:01:00,24.0,18.0,30.17,North,0,0.0,0.0,77,0.00,,,0.00,,2013-02-08 01:01:00,
2013-02-07 18:11:00,24.0,18.0,30.17,North,0,0.0,0.0,77,0.00,,,0.00,,2013-02-08 01:11:00,
2013-02-07 18:21:00,23.0,17.0,30.16,North,0,0.0,0.0,77,0.00,,,0.00,,2013-02-08 01:21:00,
2013-02-07 18:31:00,21.0,16.0,30.15,North,0,0.0,0.0,81,0.00,,,0.00,,2013-02-08 01:31:00,
2013-02-07 18:41:00,21.0,16.0,30.15,North,0,0.0,0.0,81,0.00,,,0.00,,2013-02-08 01:41:00,
2013-02-07 18:51:00,21.0,17.0,30.14,North,0,0.0,0.0,84,0.00,,,0.00,,2013-02-08 01:51:00,
2013-02-07 19:01:00,20.0,17.0,30.14,North,0,0.0,0.0,87,0.00,,,0.00,,2013-02-08 02:01:00,
2013-02-07 19:11:00,20.0,17.0,30.14,North,0,0.0,0.0,87,0.00,,,0.00,,2013-02-08 02:11:00,
2013-02-07 19:21:00,20.0,17.0,30.14,North,0,0.0,0.0,89,0.00,,,0.00,,2013-02-08 02:21:00,
2013-02-07 19:31:00,19.0,17.0,30.14,North,0,0.0,0.0,90,0.00,,,0.00,,2013-02-08 02:31:00,
2013-02-07 19:42:00,19.0,17.0,30.14,North,0,0.0,0.0,90,0.00,,,0.00,,2013-02-08 02:42:00,
2013-02-07 19:52:00,19.0,16.0,30.14,North,0,0.0,0.0,89,0.00,,,0.00,,2013-02-08 02:52:00,
2013-02-07 20:01:00,19.0,16.0,30.13,North,0,0.0,0.0,89,0.00,,,0.00,,2013-02-08 03:01:00,
2013-02-07 20:11:00,19.0,16.0,30.13,North,0,0.0,0.0,89,0.00,,,0.00,,2013-02-08 03:11:00,
2013-02-07 20:22:00,19.0,17.0,30.13,North,0,0.0,0.0,91,0.00,,,0.00,,2013-02-08 03:22:00,
2013-02-07 20:31:00,19.0,17.0,30.13,North,0,0.0,0.0,92,0.00,,,0.00,,2013-02-08 03:31:00,
2013-02-07 20:41:00,19.0,17.0,30.13,North,0,0.0,0.0,92,0.00,,,0.00,,2013-02-08 03:41:00,
2013-02-07 20:52:00,20.0,18.0,30.13,North,0,0.0,0.0,92,0.00,,,0.00,,2013-02-08 03:52:00,
2013-02-07 21:01:00,21.0,19.0,30.13,North,0,0.0,0.0,92,0.00,,,0.00,,2013-02-08 04:01:00,
2013-02-07 21:11:00,21.0,19.0,30.13,North,0,0.0,0.0,92,0.00,,,0.00,,2013-02-08 04:11:00,
2013-02-07 21:21:00,21.0,19.0,30.13,North,0,0.0,0.0,92,0.00,,,0.00,,2013-02-08 04:21:00,
2013-02-07 21:31:00,21.0,19.0,30.12,North,0,0.0,0.0,92,0.00,,,0.00,,2013-02-08 04:31:00,
2013-02-07 21:41:00,21.0,19.0,30.12,North,0,0.0,0.0,92,0.00,,,0.00,,2013-02-08 04:41:00,
2013-02-07 21:52:00,21.0,19.0,30.11,North,0,0.0,0.0,92,0.00,,,0.00,,2013-02-08 04:52:00,
2013-02-07 22:01:00,20.0,18.0,30.11,North,0,0.0,0.0,91,0.00,,,0.00,,2013-02-08 05:01:00,
2013-02-07 22:11:00,20.0,18.0,30.11,North,0,0.0,0.0,91,0.00,,,0.00,,2013-02-08 05:11:00,
2013-02-07 22:21:00,19.0,17.0,30.10,North,0,0.0,0.0,91,0.00,,,0.00,,2013-02-08 05:21:00,
2013-02-07 22:31:00,19.0,17.0,30.09,North,0,0.0,0.0,90,0.00,,,0.00,,2013-02-08 05:31:00,
2013-02-07 22:41:00,19.0,17.0,30.09,North,0,0.0,0.0,90,0.00,,,0.00,,2013-02-08 05:41:00,
2013-02-07 22:51:00,19.0,17.0,30.09,North,0,0.0,0.0,91,0.00,,,0.00,,2013-02-08 05:51:00,
2013-02-07 23:01:00,19.0,17.0,30.08,North,0,0.0,0.0,91,0.00,,,0.00,,2013-02-08 06:01:00,
2013-02-07 23:11:00,19.0,17.0,30.08,North,0,0.0,0.0,91,0.00,,,0.00,,2013-02-08 06:11:00,
2013-02-07 23:21:00,19.0,17.0,30.07,North,0,0.0,0.0,90,0.00,,,0.00,,2013-02-08 06:21:00,
2013-02-07 23:31:00,18.0,16.0,30.07,North,0,0.0,0.0,90,0.00,,,0.00,,2013-02-08 06:31:00,
2013-02-07 23:41:00,18.0,16.0,30.07,North,0,0.0,0.0,90,0.00,,,0.00,,2013-02-08 06:41:00,
2013-02-07 23:52:00,18.0,16.0,30.06,North,0,0.0,0.0,90,0.00,,,0.00,,2013-02-08 06:52:00,